Location: Coupvray
(48.8929°N, 2.7967°E)
Time: 10:55:06
(UTC+00:00)

Altair 2 - Pass Details

Date: 19 January 2021
Orbit: 837 x 949 km, 90.2° (Epoch: 26 February)

Event Time Altitude Azimuth Distance (km) Brightness Sun altitude
Rises 17:39:25 0° 157° (SSE) 3,399 10.8 -11.8°
Reaches altitude 10° 17:41:53 10° 151° (SSE) 2,459 10.0 -12.2°
Maximum altitude 17:47:05 45° 80° (E) 1,126 7.9 -13.1°
Drops below altitude 10° 17:52:18 10° 9° (N) 2,465 9.9 -13.9°
Sets 17:54:46 0° 3° (N) 3,408 10.7 -14.3°
